Location: Ferchesar
(52.6477°N, 12.4298°E)
Time: 15:29:08
(UTC+01:00)

Vanguard 3 - Pass Details

Date: 08 December 2021
Orbit: 508 x 3260 km, 33.3° (Epoch: 25 January)

Event Time Altitude Azimuth Distance (km) Brightness Sun altitude
Exits shadow 04:52:05 22° 231° (SW) 5,248 10.8 -28.4°
Maximum altitude 05:03:52 40° 182° (S) 4,051 10.6 -26.6°
Drops below altitude 10° 05:18:13 10° 121° (ESE) 5,139 12.1 -24.4°
Sets 05:21:57 0° 114° (ESE) 5,817 12.8 -23.9°
